TimeEST,TemperatureF,Dew PointF,Humidity,Sea Level PressureIn,VisibilityMPH,Wind Direction,Wind SpeedMPH,Gust SpeedMPH,PrecipitationIn,Events,Conditions,WindDirDegrees,DateUTC
12:15 AM,33.8,23.0,65,30.29,10.0,NNW,4.6,-,N/A,,Clear,330,2012-11-16 05:15:00
12:35 AM,33.8,24.8,70,30.29,10.0,North,3.5,-,N/A,,Clear,350,2012-11-16 05:35:00
12:55 AM,33.8,24.8,70,30.29,10.0,NNW,5.8,-,N/A,,Clear,340,2012-11-16 05:55:00
1:15 AM,33.8,24.8,70,30.29,10.0,NNW,4.6,-,N/A,,Clear,340,2012-11-16 06:15:00
1:35 AM,33.8,24.8,70,30.29,10.0,Calm,Calm,-,N/A,,Clear,0,2012-11-16 06:35:00
1:55 AM,32.0,24.8,75,30.30,10.0,North,4.6,-,N/A,,Clear,350,2012-11-16 06:55:00
2:15 AM,30.2,24.8,80,30.30,10.0,Calm,Calm,-,N/A,,Clear,0,2012-11-16 07:15:00
2:35 AM,32.0,24.8,75,30.30,10.0,Calm,Calm,-,N/A,,Partly Cloudy,0,2012-11-16 07:35:00
2:55 AM,28.4,24.8,86,30.30,10.0,Calm,Calm,-,N/A,,Partly Cloudy,0,2012-11-16 07:55:00
3:15 AM,30.2,26.6,86,30.30,10.0,NNW,3.5,-,N/A,,Clear,340,2012-11-16 08:15:00
3:35 AM,32.0,26.6,80,30.30,10.0,Calm,Calm,-,N/A,,Clear,0,2012-11-16 08:35:00
3:55 AM,32.0,26.6,80,30.30,10.0,Calm,Calm,-,N/A,,Clear,0,2012-11-16 08:55:00
4:15 AM,32.0,26.6,80,30.31,10.0,Calm,Calm,-,N/A,,Clear,0,2012-11-16 09:15:00
4:35 AM,32.0,26.6,80,30.32,10.0,Calm,Calm,-,N/A,,Clear,0,2012-11-16 09:35:00
4:55 AM,32.0,28.4,87,30.32,10.0,NNW,3.5,-,N/A,,Clear,340,2012-11-16 09:55:00
5:15 AM,30.2,26.6,86,30.32,10.0,North,3.5,-,N/A,,Clear,350,2012-11-16 10:15:00
5:35 AM,32.0,26.6,80,30.32,10.0,North,3.5,-,N/A,,Clear,350,2012-11-16 10:35:00
5:55 AM,30.2,26.6,86,30.32,10.0,North,3.5,-,N/A,,Clear,360,2012-11-16 10:55:00
6:15 AM,30.2,26.6,86,30.32,10.0,North,3.5,-,N/A,,Clear,360,2012-11-16 11:15:00
6:35 AM,30.2,26.6,86,30.32,10.0,North,3.5,-,N/A,,Clear,350,2012-11-16 11:35:00
6:55 AM,30.2,26.6,86,30.33,10.0,North,3.5,-,N/A,,Clear,350,2012-11-16 11:55:00
7:15 AM,30.2,26.6,86,30.34,10.0,NNW,3.5,-,N/A,,Clear,340,2012-11-16 12:15:00
7:35 AM,30.2,26.6,86,30.36,10.0,NNW,5.8,-,N/A,,Clear,340,2012-11-16 12:35:00
7:55 AM,30.2,28.4,93,30.36,10.0,North,4.6,-,N/A,,Clear,350,2012-11-16 12:55:00
8:15 AM,32.0,28.4,87,30.36,10.0,North,3.5,-,N/A,,Clear,360,2012-11-16 13:15:00
8:35 AM,33.8,28.4,81,30.37,10.0,North,4.6,-,N/A,,Clear,360,2012-11-16 13:35:00
8:55 AM,33.8,28.4,81,30.38,10.0,North,3.5,-,N/A,,Clear,360,2012-11-16 13:55:00
9:15 AM,33.8,26.6,75,30.38,10.0,North,4.6,-,N/A,,Clear,10,2012-11-16 14:15:00
9:35 AM,35.6,26.6,70,30.38,10.0,North,5.8,-,N/A,,Clear,360,2012-11-16 14:35:00
9:55 AM,35.6,26.6,70,30.38,10.0,North,4.6,-,N/A,,Clear,360,2012-11-16 14:55:00
10:15 AM,35.6,28.4,75,30.39,10.0,North,6.9,-,N/A,,Clear,360,2012-11-16 15:15:00
10:35 AM,37.4,28.4,70,30.39,10.0,North,4.6,-,N/A,,Clear,350,2012-11-16 15:35:00
10:55 AM,37.4,28.4,70,30.39,10.0,Calm,Calm,-,N/A,,Clear,0,2012-11-16 15:55:00
11:15 AM,39.2,28.4,65,30.39,10.0,NNE,3.5,-,N/A,,Clear,20,2012-11-16 16:15:00
11:35 AM,39.2,28.4,65,30.38,10.0,Calm,Calm,-,N/A,,Clear,0,2012-11-16 16:35:00
11:55 AM,41.0,28.4,61,30.38,10.0,Calm,Calm,-,N/A,,Clear,0,2012-11-16 16:55:00
12:15 PM,42.8,28.4,57,30.38,10.0,Calm,Calm,-,N/A,,Clear,0,2012-11-16 17:15:00
12:35 PM,42.8,26.6,53,30.37,10.0,NNE,5.8,-,N/A,,Clear,20,2012-11-16 17:35:00
12:55 PM,42.8,28.4,57,30.37,10.0,North,3.5,-,N/A,,Clear,10,2012-11-16 17:55:00
1:15 PM,42.8,26.6,53,30.37,10.0,Calm,Calm,-,N/A,,Clear,0,2012-11-16 18:15:00
1:35 PM,44.6,24.8,46,30.37,10.0,Calm,Calm,-,N/A,,Clear,0,2012-11-16 18:35:00
1:55 PM,42.8,26.6,53,30.37,10.0,Calm,Calm,-,N/A,,Clear,0,2012-11-16 18:55:00
2:15 PM,46.4,26.6,46,30.37,10.0,NNW,3.5,-,N/A,,Clear,340,2012-11-16 19:15:00
2:35 PM,46.4,26.6,46,30.38,10.0,NW,5.8,-,N/A,,Clear,320,2012-11-16 19:35:00
2:55 PM,46.4,26.6,46,30.38,10.0,NW,5.8,-,N/A,,Clear,320,2012-11-16 19:55:00
3:15 PM,46.4,26.6,46,30.38,10.0,NW,8.1,-,N/A,,Clear,320,2012-11-16 20:15:00
3:35 PM,44.6,26.6,49,30.39,10.0,NNW,9.2,-,N/A,,Clear,340,2012-11-16 20:35:00
3:55 PM,42.8,30.2,61,30.40,10.0,NNW,11.5,-,N/A,,Clear,340,2012-11-16 20:55:00
4:15 PM,42.8,30.2,61,30.41,10.0,NNW,9.2,-,N/A,,Clear,340,2012-11-16 21:15:00
4:35 PM,39.2,30.2,70,30.41,10.0,North,10.4,-,N/A,,Clear,350,2012-11-16 21:35:00
4:55 PM,39.2,30.2,70,30.42,10.0,North,9.2,-,N/A,,Clear,350,2012-11-16 21:55:00
5:15 PM,37.4,30.2,75,30.42,10.0,NNW,8.1,-,N/A,,Clear,340,2012-11-16 22:15:00
5:35 PM,37.4,30.2,75,30.42,10.0,North,8.1,-,N/A,,Clear,350,2012-11-16 22:35:00
5:55 PM,37.4,30.2,75,30.43,10.0,North,8.1,-,N/A,,Clear,350,2012-11-16 22:55:00
6:15 PM,35.6,30.2,81,30.43,10.0,North,6.9,-,N/A,,Clear,350,2012-11-16 23:15:00
6:35 PM,35.6,30.2,81,30.44,10.0,North,5.8,-,N/A,,Clear,350,2012-11-16 23:35:00
6:55 PM,35.6,30.2,81,30.44,10.0,North,6.9,-,N/A,,Clear,350,2012-11-16 23:55:00
7:15 PM,35.6,30.2,81,30.44,10.0,North,8.1,-,N/A,,Clear,350,2012-11-17 00:15:00
7:35 PM,35.6,30.2,81,30.44,10.0,North,5.8,-,N/A,,Clear,350,2012-11-17 00:35:00
7:55 PM,35.6,30.2,81,30.45,10.0,North,6.9,-,N/A,,Clear,350,2012-11-17 00:55:00
8:15 PM,33.8,30.2,87,30.45,10.0,North,5.8,-,N/A,,Clear,350,2012-11-17 01:15:00
8:35 PM,33.8,30.2,87,30.45,10.0,North,4.6,-,N/A,,Clear,350,2012-11-17 01:35:00
8:55 PM,33.8,30.2,87,30.46,8.0,North,4.6,-,N/A,,Clear,350,2012-11-17 01:55:00
9:15 PM,33.8,30.2,87,30.46,10.0,North,4.6,-,N/A,,Clear,360,2012-11-17 02:15:00
9:35 PM,32.0,26.6,80,30.47,6.0,Calm,Calm,-,N/A,,Clear,0,2012-11-17 02:35:00
9:55 PM,33.8,30.2,87,30.47,6.0,Calm,Calm,-,N/A,,Clear,0,2012-11-17 02:55:00
10:15 PM,33.8,30.2,87,30.47,7.0,Calm,Calm,-,N/A,,Clear,0,2012-11-17 03:15:00
10:55 PM,32.0,30.2,93,30.47,0.5,Calm,Calm,-,N/A,,Unknown,0,2012-11-17 03:55:00
11:15 PM,32.0,30.2,93,30.47,2.5,Calm,Calm,-,N/A,,Clear,0,2012-11-17 04:15:00
11:35 PM,32.0,30.2,93,30.47,1.2,Calm,Calm,-,N/A,,Clear,0,2012-11-17 04:35:00
11:55 PM,32.0,30.2,93,30.47,3.0,Calm,Calm,-,N/A,,Clear,0,2012-11-17 04:55:00